Location: Unspecified
(42.3650°N, 71.1030°W)
Time: 00:56:47
(UTC+00:00)

Explorer 11/Cluster Stage 4 - Pass Details

Date: 29 June 2024
Orbit: 465 x 1216 km, 28.8° (Epoch: 13 July)

Event Time Altitude Azimuth Distance (km) Brightness Sun altitude
Rises 23:15:32 0° 241° (WSW) 3,713 10.7 10.6°
Reaches altitude 10° 23:18:28 10° 230° (SW) 2,871 9.9 10.1°
Maximum altitude 23:24:26 28° 175° (S) 1,998 8.5 9.1°
Drops below altitude 10° 23:30:53 10° 120° (ESE) 3,141 9.1 8.0°
Sets 23:34:16 0° 110° (ESE) 4,122 9.6 7.4°
